Gaspe, Quebec

2:23 PM EDT on May 26, 2017 (GMT -0400)
Gaspe

Weather History for CYGP - July, 2013

Change the Weather History Date:

Monday, July 15, 2013

  Actual Average Record
Temperature  
Mean Temperature 76 °F -  
Max Temperature 94 °F 70 °F 94 °F (2013)
Min Temperature 59 °F 50 °F 42 °F (1997)
Cooling Degree Days 12    
Growing Degree Days 26 (Base 50)    
Moisture  
Dew Point 60 °F    
Average Humidity 57    
Maximum Humidity 94    
Minimum Humidity 32    
Precipitation  
Precipitation 0.00 in -13.12 in - ()
Sea Level Pressure  
Sea Level Pressure 29.96 in    
Wind  
Wind Speed 6 mph ()    
Max Wind Speed 15 mph    
Max Gust Speed 24 mph    
Visibility 15.0 miles    
Events      
Averages and records for this station are not official NWS values.
T = Trace of Precipitation, MM = Missing Value Source: Averaged Metar Reports

Daily Weather History Graph

Daily Weather History Graph

Search for Another Location

Airport or City:

Trip Planner

Search our weather history database for the weather conditions in past years. The results will help you decide how hot, cold, wet, or windy it might be!

Date:

Astronomy

Jul. 15, 2013 Rise Set
Actual Time 4:31 AM EDT 8:16 PM EDT
Civil Twilight 3:50 AM EDT 8:56 PM EDT
Nautical Twilight 2:55 AM EDT 9:50 PM EDT
Astronomical Twilight 1:34 AM EDT 11:10 PM EDT
Moon 12:28 PM EDT (7/15) 11:15 PM EDT (7/15)
Length of Visible Light 17h 05m
Length of Day
15h 45m
Waxing Crescent, 45% of the Moon is Illuminated
Jul 15
Waxing Crescent
Jul 15
First Quarter
Jul 22
Full
Jul 29
Last Quarter
Aug 6
New

Hourly Weather History & Observations

Time (EDT) Temp. Heat Index Dew Point Humidity Pressure Visibility Wind Dir Wind Speed Gust Speed Precip Events Conditions
12:00 AM 62.6 °F - 59.0 °F 88% 30.03 in 15.0 mi West 4.6 mph - N/A   Clear
1:00 AM 60.8 °F - 59.0 °F 94% 30.02 in 15.0 mi West 5.8 mph - N/A   Clear
2:00 AM 63 °F - 59 °F 82% 30.00 in 15 mi West 4.5 mph - -  
2:00 AM 62.6 °F - 59.0 °F 88% 30.00 in 15.0 mi West 3.5 mph - N/A   Clear
3:00 AM 64.4 °F - 59.0 °F 83% 30.00 in 15.0 mi West 2.3 mph - N/A   Scattered Clouds
4:00 AM 62.6 °F - 57.2 °F 82% 29.99 in 15.0 mi WSW 2.3 mph - N/A   Scattered Clouds
5:00 AM 64.4 °F - 59.0 °F 83% 29.98 in 15.0 mi WSW 3.5 mph - N/A   Mostly Cloudy
6:00 AM 71.6 °F - 57.2 °F 60% 29.97 in 15.0 mi NW 4.6 mph - N/A   Mostly Cloudy
7:00 AM 73.4 °F - 60.8 °F 65% 29.96 in 15.0 mi SE 3.5 mph - N/A   Mostly Cloudy
8:00 AM 82 °F - 61 °F 38% 29.96 in 15 mi West 9.2 mph - -   Partly Cloudy
8:00 AM 82.4 °F 82.9 °F 60.8 °F 48% 29.96 in 15.0 mi West 9.2 mph - N/A   Scattered Clouds
9:00 AM 86.0 °F 86.1 °F 60.8 °F 43% 29.95 in 15.0 mi West 10.4 mph - N/A   Partly Cloudy
10:00 AM 89.6 °F 90.1 °F 62.6 °F 40% 29.93 in 15.0 mi West 8.1 mph - N/A   Partly Cloudy
11:00 AM 91.4 °F 91.4 °F 60.8 °F 36% 29.91 in 15.0 mi NW 11.5 mph 19.6 mph N/A   Partly Cloudy
12:00 PM 93.2 °F 92.6 °F 59.0 °F 32% 29.89 in 15.0 mi WNW 6.9 mph - N/A   Mostly Cloudy
1:00 PM 84.2 °F 85.0 °F 62.6 °F 48% 29.91 in 15.0 mi Calm Calm - N/A   Mostly Cloudy
2:00 PM 80 °F - 62 °F 45% 29.90 in 15 mi East 9.2 mph - -   Scattered Clouds
2:00 PM 80.6 °F 81.8 °F 62.6 °F 54% 29.90 in 15.0 mi East 11.5 mph - N/A   Mostly Cloudy
3:00 PM 87.8 °F 88.5 °F 62.6 °F 43% 29.91 in 15.0 mi Variable 11.5 mph 19.6 mph N/A   Scattered Clouds
4:00 PM 86.0 °F 87.3 °F 64.4 °F 48% 29.92 in 15.0 mi NNW 12.7 mph 21.9 mph N/A   Scattered Clouds
5:00 PM 86.0 °F 86.1 °F 60.8 °F 43% 29.94 in 15.0 mi NW 15.0 mph 24.2 mph N/A   Partly Cloudy
6:00 PM 84.2 °F 84.4 °F 60.8 °F 45% 29.95 in 15.0 mi NNW 8.1 mph - N/A   Partly Cloudy
7:00 PM 82.4 °F 82.5 °F 59.0 °F 45% 29.96 in 15.0 mi NW 5.8 mph - N/A   Scattered Clouds
8:00 PM 78 °F - 60 °F 43% 29.97 in 15 mi West 5.8 mph - -   Partly Cloudy
8:00 PM 78.8 °F - 59.0 °F 51% 29.97 in 15.0 mi West 4.6 mph - N/A   Scattered Clouds
9:00 PM 75.2 °F - 60.8 °F 61% 30.00 in 15.0 mi West 6.9 mph - N/A   Scattered Clouds
10:00 PM 78.8 °F - 59.0 °F 51% 30.01 in 15.0 mi NW 6.9 mph - N/A   Scattered Clouds
11:00 PM 75.2 °F - 53.6 °F 47% 30.04 in 15.0 mi North 8.1 mph - N/A   Scattered Clouds